Starlink 31750

operational
NORAD ID: 59552 Int'l Des: 2024-074 Owner: SPXS Country: US Constellation: starlink
LEOCIRCULAR

关于 Starlink 31750

正在加载描述...

实时位置

正在加载3D地球...

即将过境

高度历史

Altitude vs Time

uPlot chart will show altitude changes over time

两行轨道根数

1 59552U 24074U 26033.44402656 -.00001208 00000-0 -34384-4 0 9997
2 59552 43.0001 182.5967 0000989 279.3298 80.7442 15.27576693100625
Epoch: Feb 2, 2026 • Age: 14 hours

当前状态

高度 485.7 km
速度 7.63 km/s
星下点 38.19°N, 87.09°E
发射日期 Apr 18, 2024
运行时间 1.7 years
类型 internet

技术详情

分类 Payload
质量 730.00 kg
干质量 700.00 kg
总质量 730.00 kg
长度 0.30 m
直径 4.10 m
跨度 29.00 m
形状 Box + pan
制造商 SPXS
平台类型 Starlink V2M
阶段状态 In Orbit
所有者/国家 SPXS/US

大型星座

Loading constellations...